Location: Unnamed Road
(35.9029°N, 51.9749°E)
Time: 23:18:33
(UTC+04:30)

S-56A Canister/Altair - Visible Passes

Search period start: 06 June 2020 00:00
Search period end: 16 June 2020 00:00
Orbit: 633 x 2499 km, 38.9° (Epoch: 05 June)

Date Brightness Start Highest point End Pass type
(mag) Time Alt. Az. Time Alt. Az. Time Alt. Az.
06 Jun 8.7 02:44:48 29° ESE 02:44:48 29° ESE 02:48:18 10° E visible
06 Jun 7.9 04:42:13 11° W 04:46:57 78° NNW 04:54:02 10° ENE visible
07 Jun 9.4 02:13:42 17° E 02:13:42 17° E 02:15:14 10° E visible
07 Jun 7.6 04:11:06 22° WSW 04:14:18 83° NNW 04:20:47 10° ENE visible
08 Jun 7.3 03:39:59 40° WSW 03:41:42 90° S 03:47:39 10° ENE visible
09 Jun 7.1 03:08:51 76° SSW 03:09:08 81° SSE 03:14:36 10° ENE visible
09 Jun 8.2 05:08:09 10° W 05:13:11 66° N 05:20:22 10° E visible
10 Jun 7.8 02:37:43 50° E 02:37:43 50° E 02:41:40 10° ENE visible
10 Jun 8.0 04:35:43 10° W 04:40:29 64° N 04:47:03 10° E visible
11 Jun 8.9 02:06:35 26° E 02:06:35 26° E 02:08:50 10° ENE visible
11 Jun 7.8 04:04:00 15° W 04:07:51 64° N 04:13:50 10° E visible
12 Jun 9.6 01:35:27 13° E 01:35:27 13° E 01:36:04 10° ENE visible
12 Jun 7.6 03:32:51 28° W 03:35:13 65° N 03:40:45 10° ENE visible
13 Jun 7.4 03:01:44 52° WNW 03:02:38 67° N 03:07:46 10° ENE visible
13 Jun 7.9 05:01:48 10° WNW 05:06:41 76° NNE 05:13:27 10° E visible
14 Jun 7.5 02:30:37 62° NE 02:30:37 62° NE 02:34:55 10° ENE visible
14 Jun 7.8 04:29:24 10° WNW 04:34:02 71° N 04:40:13 10° E visible
15 Jun 8.5 01:59:32 32° ENE 01:59:32 32° ENE 02:02:09 10° ENE visible
15 Jun 7.7 03:56:57 10° WNW 04:01:25 66° N 04:07:05 10° E visible
